Pellston, MI

9:12 AM EDT on March 28, 2017 (GMT -0400)
Pellston Regional Airport Of Emmet County

Weather History for KPLN - February, 2013

Change the Weather History Date:

Friday, February 1, 2013

  Actual Average Record
Temperature  
Mean Temperature 12 °F -  
Max Temperature 15 °F 27 °F 44 °F (1998)
Min Temperature 10 °F 8 °F -26 °F (1961)
Degree Days  
Heating Degree Days 52    
Moisture  
Dew Point 8 °F    
Average Humidity 78    
Maximum Humidity 85    
Minimum Humidity 62    
Precipitation  
Precipitation 0.02 in - - ()
Sea Level Pressure  
Sea Level Pressure 30.03 in    
Wind  
Wind Speed 10 mph (West)    
Max Wind Speed 17 mph    
Max Gust Speed 24 mph    
Visibility 3 miles    
Events Snow    
Averages and records for this station are not official NWS values.
T = Trace of Precipitation, MM = Missing Value Source: NWS Daily Summary

Daily Weather History Graph

Daily Weather History Graph

Search for Another Location

Airport or City:

Trip Planner

Search our weather history database for the weather conditions in past years. The results will help you decide how hot, cold, wet, or windy it might be!

Date:

Astronomy

Feb. 01, 2013 Rise Set
Actual Time 8:00 AM EST 5:46 PM EST
Civil Twilight 7:28 AM EST 6:17 PM EST
Nautical Twilight 6:53 AM EST 6:53 PM EST
Astronomical Twilight 6:18 AM EST 7:28 PM EST
Moon No Moon Rise 10:12 AM EST (2/1)
Length of Visible Light 10h 49m
Length of Day
9h 46m
Waning Gibbous, 70% of the Moon is Illuminated
Feb 1
Waning Gibbous
Feb 3
Last Quarter
Feb 10
New
Feb 17
First Quarter
Feb 25
Full

Hourly Weather History & Observations

Time (EST) Temp. Windchill Dew Point Humidity Pressure Visibility Wind Dir Wind Speed Gust Speed Precip Events Conditions
12:07 AM 15.8 °F 2.1 °F 10.4 °F 79% 29.80 in 1.0 mi WNW 12.7 mph - 0.00 in Snow Light Snow
12:27 AM 15.8 °F 1.4 °F 10.4 °F 79% 29.81 in 1.8 mi NW 13.8 mph 19.6 mph 0.00 in Snow Light Snow
12:30 AM 15.8 °F 1.4 °F 8.6 °F 73% 29.81 in 2.0 mi NW 13.8 mph - 0.00 in Snow Light Snow
12:39 AM 14.0 °F 0.5 °F 8.6 °F 79% 29.82 in 5.0 mi NW 11.5 mph - 0.00 in Snow Light Snow
12:54 AM 14.0 °F -0.2 °F 8.1 °F 77% 29.87 in 4.0 mi NW 12.7 mph - 0.00 in Snow Light Snow
1:06 AM 12.2 °F -2.5 °F 6.8 °F 79% 29.82 in 5.0 mi NW 12.7 mph - 0.00 in Snow Light Snow
1:54 AM 12.9 °F -0.9 °F 6.1 °F 74% 29.88 in 6.0 mi NW 11.5 mph - 0.00 in   Haze
4:37 AM 10.4 °F 0.8 °F 5.0 °F 79% 29.90 in 9.0 mi NW 5.8 mph - 0.00 in   Overcast
4:46 AM 10.4 °F 2.2 °F 5.0 °F 79% 29.91 in 10.0 mi NW 4.6 mph - 0.00 in   Overcast
5:09 AM 10.4 °F 4.0 °F 6.8 °F 85% 29.92 in 5.0 mi West 3.5 mph - 0.00 in Snow Light Snow
5:50 AM 10.4 °F - 6.8 °F 85% 29.93 in 10.0 mi Calm Calm - 0.00 in   Overcast
5:54 AM 10.9 °F - 6.1 °F 81% 29.99 in 10.0 mi Calm Calm - 0.00 in   Overcast
6:39 AM 12.2 °F -1.0 °F 6.8 °F 79% 29.95 in 5.0 mi North 10.4 mph - 0.00 in Snow Light Snow
6:54 AM 12.9 °F 1.6 °F 7.0 °F 77% 30.01 in 3.0 mi NNW 8.1 mph - 0.00 in Snow Light Snow
7:41 AM 12.2 °F -0.2 °F 6.8 °F 79% 29.98 in 5.0 mi NW 9.2 mph - 0.00 in Snow Light Snow
7:54 AM 12.9 °F -2.2 °F 6.1 °F 74% 30.03 in 7.0 mi WNW 13.8 mph - 0.00 in Snow Light Snow
8:16 AM 12.2 °F -3.7 °F 6.8 °F 79% 29.99 in 2.0 mi West 15.0 mph 20.7 mph 0.00 in Snow Light Snow
8:43 AM 12.2 °F -1.8 °F 6.8 °F 79% 30.01 in 3.0 mi WNW 11.5 mph - 0.00 in Snow Light Snow
8:50 AM 12.2 °F -1.8 °F 6.8 °F 79% 30.01 in 1.8 mi WNW 11.5 mph 21.9 mph 0.00 in Snow Light Snow
8:51 AM 12.9 °F -2.8 °F 7.0 °F 77% 30.06 in 1.8 mi WNW 15.0 mph 21.9 mph 0.00 in Snow Light Snow
8:58 AM 12.2 °F -4.3 °F 6.8 °F 79% 30.02 in 1.5 mi WNW 16.1 mph 21.9 mph 0.00 in Snow Light Snow
9:47 AM 14.0 °F 0.5 °F 8.6 °F 79% 30.03 in 2.0 mi WNW 11.5 mph - 0.00 in Snow Light Snow
9:54 AM 14.0 °F 2.0 °F 8.1 °F 77% 30.08 in 3.0 mi WNW 9.2 mph - 0.00 in Snow Light Snow
10:16 AM 14.0 °F -2.5 °F 6.8 °F 73% 30.04 in 4.0 mi WNW 17.3 mph - 0.00 in Snow Light Snow
10:29 AM 14.0 °F -0.8 °F 6.8 °F 73% 30.04 in 3.0 mi WNW 13.8 mph 24.2 mph 0.00 in Snow Light Snow
11:10 AM 15.8 °F -0.2 °F 5.0 °F 62% 30.06 in 10.0 mi West 17.3 mph - N/A   Mostly Cloudy
11:35 AM 14.0 °F -0.8 °F 5.0 °F 67% 30.06 in 10.0 mi WNW 13.8 mph - N/A   Scattered Clouds
11:54 AM 14.0 °F -2.5 °F 6.1 °F 71% 30.11 in 10.0 mi West 17.3 mph - N/A   Mostly Cloudy
12:29 PM 15.8 °F 2.1 °F 6.8 °F 68% 30.06 in 1.8 mi WNW 12.7 mph - 0.00 in Snow Light Snow
12:46 PM 15.8 °F 3.4 °F 8.6 °F 73% 30.05 in 3.0 mi West 10.4 mph - 0.00 in Snow Light Snow
1:07 PM 15.8 °F 3.4 °F 8.6 °F 73% 30.05 in 1.8 mi WNW 10.4 mph - 0.00 in Snow Light Snow
1:24 PM 15.8 °F 2.7 °F 8.6 °F 73% 30.05 in 2.5 mi West 11.5 mph 17.3 mph 0.00 in Snow Light Snow
1:26 PM 15.8 °F 4.2 °F 8.6 °F 73% 30.05 in 3.0 mi West 9.2 mph 17.3 mph 0.00 in Snow Light Snow
1:33 PM 15.8 °F 4.2 °F 8.6 °F 73% 30.05 in 2.5 mi WNW 9.2 mph - 0.00 in Snow Light Snow
1:37 PM 15.8 °F 3.4 °F 6.8 °F 68% 30.05 in 3.0 mi WNW 10.4 mph - 0.00 in Snow Light Snow
1:54 PM 15.1 °F 1.8 °F 7.0 °F 70% 30.10 in 4.0 mi WNW 11.5 mph - 0.00 in Snow Light Snow
2:15 PM 15.8 °F 1.4 °F 8.6 °F 73% 30.05 in 2.5 mi West 13.8 mph - 0.00 in Snow Light Snow
2:24 PM 15.8 °F 4.2 °F 8.6 °F 73% 30.05 in 2.0 mi West 9.2 mph - 0.00 in Snow Light Snow
2:44 PM 15.8 °F 4.2 °F 8.6 °F 73% 30.05 in 1.2 mi West 9.2 mph - 0.00 in Snow Light Snow
2:50 PM 15.8 °F 3.4 °F 8.6 °F 73% 30.05 in 0.8 mi West 10.4 mph - 0.00 in Snow Light Snow
2:54 PM 15.1 °F 4.2 °F 10.0 °F 80% 30.09 in 0.5 mi West 8.1 mph - 0.00 in Snow Snow
3:10 PM 15.8 °F 5.1 °F 10.4 °F 79% 30.05 in 0.2 mi West 8.1 mph - 0.00 in Snow Heavy Snow
3:21 PM 15.8 °F 4.2 °F 10.4 °F 79% 30.05 in 0.8 mi West 9.2 mph - 0.00 in Snow Light Snow
3:24 PM 15.8 °F 3.4 °F 8.6 °F 73% 30.05 in 1.5 mi WSW 10.4 mph - 0.00 in Snow Light Snow
3:27 PM 15.8 °F 5.1 °F 8.6 °F 73% 30.05 in 3.0 mi West 8.1 mph - 0.00 in Snow Light Snow
3:39 PM 15.8 °F 3.4 °F 8.6 °F 73% 30.05 in 1.5 mi West 10.4 mph - 0.00 in Snow Light Snow
3:54 PM 15.1 °F 1.8 °F 9.0 °F 77% 30.11 in 0.8 mi WSW 11.5 mph 20.7 mph 0.00 in Snow Light Snow
4:04 PM 15.8 °F 5.1 °F 8.6 °F 73% 30.05 in 2.0 mi West 8.1 mph - 0.00 in Snow Light Snow
4:12 PM 15.8 °F 5.1 °F 8.6 °F 73% 30.05 in 6.0 mi WSW 8.1 mph - 0.00 in   Haze
4:23 PM 15.8 °F 7.2 °F 8.6 °F 73% 30.05 in 6.0 mi WSW 5.8 mph - 0.00 in   Haze
4:53 PM 15.1 °F 2.5 °F 8.1 °F 74% 30.10 in 2.5 mi WSW 10.4 mph - 0.00 in Snow Light Snow
5:19 PM 14.0 °F 3.9 °F 8.6 °F 79% 30.05 in 1.2 mi WSW 6.9 mph - 0.00 in Snow Light Snow
5:26 PM 14.0 °F 2.9 °F 8.6 °F 79% 30.05 in 2.0 mi WSW 8.1 mph - 0.00 in Snow Light Snow
5:34 PM 14.0 °F 1.2 °F 8.6 °F 79% 30.05 in 5.0 mi WSW 10.4 mph - 0.00 in Snow Light Snow
5:45 PM 14.0 °F 2.9 °F 8.6 °F 79% 30.05 in 2.0 mi WSW 8.1 mph - 0.00 in Snow Light Snow
5:50 PM 14.0 °F 5.1 °F 8.6 °F 79% 30.05 in 0.8 mi SW 5.8 mph - 0.00 in Snow Light Snow
5:54 PM 14.0 °F 5.1 °F 9.0 °F 80% 30.10 in 0.8 mi WSW 5.8 mph - 0.00 in Snow Light Snow
6:05 PM 14.0 °F 2.9 °F 8.6 °F 79% 30.05 in 1.8 mi WSW 8.1 mph - 0.00 in Snow Light Snow
6:11 PM 14.0 °F 5.1 °F 8.6 °F 79% 30.05 in 2.5 mi WSW 5.8 mph - 0.00 in Snow Light Snow
6:14 PM 14.0 °F 6.5 °F 8.6 °F 79% 30.05 in 1.8 mi WSW 4.6 mph - 0.00 in Snow Light Snow
6:27 PM 14.0 °F 6.5 °F 8.6 °F 79% 30.05 in 2.0 mi WSW 4.6 mph - 0.00 in Snow Light Snow
6:37 PM 14.0 °F 3.9 °F 8.6 °F 79% 30.05 in 2.5 mi WSW 6.9 mph - 0.00 in Snow Light Snow
6:46 PM 14.0 °F 5.1 °F 8.6 °F 79% 30.05 in 1.2 mi WSW 5.8 mph - 0.01 in Snow Light Snow
6:50 PM 14.0 °F 5.1 °F 8.6 °F 79% 30.05 in 2.0 mi SW 5.8 mph - 0.01 in Snow Light Snow
6:54 PM 14.0 °F 5.1 °F 8.1 °F 77% 30.10 in 5.0 mi SW 5.8 mph - 0.01 in Snow Light Snow
7:09 PM 14.0 °F 5.1 °F 8.6 °F 79% 30.05 in 2.0 mi South 5.8 mph - 0.00 in Snow Light Snow
7:15 PM 12.2 °F -3.1 °F 8.6 °F 85% 30.05 in 0.8 mi SW 13.8 mph - 0.00 in Snow Light Snow
7:20 PM 12.2 °F -2.5 °F 8.6 °F 85% 30.05 in 1.0 mi SSW 12.7 mph 16.1 mph 0.00 in Snow Light Snow
7:35 PM 12.2 °F -1.0 °F 8.6 °F 85% 30.06 in 0.8 mi SW 10.4 mph - 0.00 in Snow Light Snow
7:51 PM 12.2 °F -0.2 °F 6.8 °F 79% 30.05 in 1.0 mi SSW 9.2 mph - 0.00 in Snow Light Snow
7:54 PM 12.9 °F 0.7 °F 8.1 °F 81% 30.11 in 1.0 mi SW 9.2 mph - 0.00 in Snow Light Snow
7:57 PM 12.2 °F 0.7 °F 8.6 °F 85% 30.05 in 0.8 mi SW 8.1 mph - 0.00 in Snow Light Snow
8:06 PM 12.2 °F -2.5 °F 8.6 °F 85% 30.05 in 0.8 mi SSW 12.7 mph - 0.00 in Snow Light Snow
8:13 PM 12.2 °F -0.2 °F 8.6 °F 85% 30.05 in 1.0 mi SSW 9.2 mph - 0.00 in Snow Light Snow
8:23 PM 12.2 °F -0.2 °F 8.6 °F 85% 30.05 in 0.8 mi SW 9.2 mph - 0.00 in Snow Light Snow
8:54 PM 12.0 °F -0.4 °F 8.1 °F 84% 30.09 in 0.8 mi SSW 9.2 mph - 0.01 in Snow Light Snow
9:05 PM 12.2 °F -0.2 °F 8.6 °F 85% 30.04 in 1.0 mi South 9.2 mph - 0.00 in Snow Light Snow
9:25 PM 12.2 °F 0.7 °F 6.8 °F 79% 30.03 in 0.8 mi SSW 8.1 mph - 0.00 in Snow Light Snow
9:44 PM 12.2 °F 2.9 °F 6.8 °F 79% 30.03 in 1.0 mi SW 5.8 mph - 0.00 in Snow Light Snow
9:54 PM 12.0 °F -3.4 °F 7.0 °F 80% 30.08 in 1.2 mi SSW 13.8 mph 18.4 mph 0.00 in Snow Light Snow
10:15 PM 12.2 °F 0.7 °F 6.8 °F 79% 30.03 in 0.8 mi SW 8.1 mph - 0.00 in Snow Light Snow
10:22 PM 12.2 °F 1.7 °F 8.6 °F 85% 30.03 in 1.0 mi SW 6.9 mph - 0.00 in Snow Light Snow
10:36 PM 12.2 °F -1.0 °F 6.8 °F 79% 30.03 in 2.0 mi SW 10.4 mph 16.1 mph 0.00 in Snow Light Snow
10:42 PM 14.0 °F 1.2 °F 6.8 °F 73% 30.03 in 1.8 mi WSW 10.4 mph - 0.00 in Snow Light Snow
10:50 PM 12.2 °F -1.8 °F 6.8 °F 79% 30.03 in 3.0 mi WSW 11.5 mph 17.3 mph 0.00 in Snow Light Snow
10:54 PM 12.0 °F 1.5 °F 6.1 °F 77% 30.07 in 5.0 mi WSW 6.9 mph 17.3 mph 0.00 in Snow Light Snow
11:04 PM 12.2 °F 1.7 °F 6.8 °F 79% 30.03 in 9.0 mi WSW 6.9 mph - 0.00 in   Overcast
11:13 PM 12.2 °F -0.2 °F 6.8 °F 79% 30.03 in 2.5 mi WSW 9.2 mph - 0.00 in Snow Light Snow
11:38 PM 12.2 °F 1.7 °F 6.8 °F 79% 30.03 in 3.0 mi West 6.9 mph - 0.00 in Snow Light Snow
11:54 PM 12.0 °F 1.5 °F 6.1 °F 77% 30.08 in 3.0 mi West 6.9 mph - 0.00 in Snow Light Snow
11:58 PM 12.2 °F 2.9 °F 6.8 °F 79% 30.03 in 1.8 mi West 5.8 mph - 0.00 in Snow Light Snow